[keps] orb08267.amsat

Ray Hoad r.hoad at att.net
Tue Sep 23 17:33:45 PDT 2008


SB KEPS @ AMSAT  $ORB08267.O
Orbital Elements  08267.OSCAR

HR AMSAT ORBITAL ELEMENTS FOR OSCAR SATELLITES
FROM WA5QGD FORT WORTH,TX September 23, 2008
Send Subscribe/unsubscribe to KEPS at 
http://www.amsat.org/mailman/listinfo/keps
BID: ORB08267.O
TO ALL RADIO AMATEURS BT

Satellite: AO-07
Catalog number: 07530
Epoch time:      08267.61518789
Element set:     285
Inclination:      101.4589 deg
RA of node:       295.7949 deg
Eccentricity:    0.0012148
Arg of perigee:   069.9830 deg
Mean anomaly:     290.2547 deg
Mean motion:   12.53574301 rev/day
Decay rate:       -2.7e-07 rev/day^2
Epoch rev:           54931
Checksum:              332

Satellite: AO-10
Catalog number: 14129
Epoch time:      08265.82276643
Element set:     566
Inclination:      026.0358 deg
RA of node:       194.4628 deg
Eccentricity:    0.5963241
Arg of perigee:   158.9099 deg
Mean anomaly:     242.8700 deg
Mean motion:   02.05869824 rev/day
Decay rate:      -2.61e-06 rev/day^2
Epoch rev:           19009
Checksum:              329

Satellite: UO-11
Catalog number: 14781
Epoch time:      08267.64639417
Element set:     774
Inclination:      098.1465 deg
RA of node:       303.1105 deg
Eccentricity:    0.0009952
Arg of perigee:   113.1368 deg
Mean anomaly:     247.0870 deg
Mean motion:   14.79663759 rev/day
Decay rate:      -1.83e-06 rev/day^2
Epoch rev:           31841
Checksum:              323

Satellite: RS-15
Catalog number: 23439
Epoch time:      08266.92940276
Element set:    0194
Inclination:      064.8214 deg
RA of node:       336.9943 deg
Eccentricity:    0.0146266
Arg of perigee:   103.9780 deg
Mean anomaly:     257.7457 deg
Mean motion:   11.27552502 rev/day
Decay rate:       -3.9e-07 rev/day^2
Epoch rev:           56598
Checksum:              341

Satellite: FO-29
Catalog number: 24278
Epoch time:      08267.55212029
Element set:     864
Inclination:      098.5774 deg
RA of node:       170.9341 deg
Eccentricity:    0.0350367
Arg of perigee:   321.0804 deg
Mean anomaly:     036.5576 deg
Mean motion:   13.52939385 rev/day
Decay rate:       -8.5e-07 rev/day^2
Epoch rev:           59769
Checksum:              349

Satellite: SO-33
Catalog number: 25509
Epoch time:      08266.83844539
Element set:     286
Inclination:      031.4289 deg
RA of node:       124.2066 deg
Eccentricity:    0.0354783
Arg of perigee:   161.0923 deg
Mean anomaly:     200.3216 deg
Mean motion:   14.28226779 rev/day
Decay rate:       1.93e-06 rev/day^2
Epoch rev:           51758
Checksum:              320

Satellite: AO-40
Catalog number: 26609
Epoch time:      08267.51973889
Element set:     123
Inclination:      007.8257 deg
RA of node:       059.1063 deg
Eccentricity:    0.7936186
Arg of perigee:   126.1084 deg
Mean anomaly:     335.1143 deg
Mean motion:   01.25584355 rev/day
Decay rate:      -4.63e-06 rev/day^2
Epoch rev:            3627
Checksum:              321

Satellite: VO-52
Catalog number: 28650
Epoch time:      08266.39521535
Element set:    0037
Inclination:      097.7795 deg
RA of node:       330.2909 deg
Eccentricity:    0.0026991
Arg of perigee:   181.3279 deg
Mean anomaly:     178.7858 deg
Mean motion:   14.81498333 rev/day
Decay rate:      -3.21e-06 rev/day^2
Epoch rev:           18299
Checksum:              355

Satellite: PO-63
Catalog number: 29712
Epoch time:      08267.71487347
Element set:     820
Inclination:      097.8654 deg
RA of node:       324.0081 deg
Eccentricity:    0.0015341
Arg of perigee:   063.0969 deg
Mean anomaly:     297.1801 deg
Mean motion:   14.80272395 rev/day
Decay rate:       4.20e-06 rev/day^2
Epoch rev:            9204
Checksum:              308

/EX
SB KEPS @ AMSAT  $ORB08267.D
Orbital Elements  08267.MICROS

HR AMSAT ORBITAL ELEMENTS FOR THE MICROSATS
FROM WA5QGD FORT WORTH,TX September 23, 2008
Send Subscribe/unsubscribe to KEPS at 
http://www.amsat.org/mailman/listinfo/keps
BID: ORB08267.D
TO ALL RADIO AMATEURS BT

Satellite: AO-16
Catalog number: 20439
Epoch time:      08267.60516736
Element set:     424
Inclination:      098.2427 deg
RA of node:       242.6928 deg
Eccentricity:    0.0009973
Arg of perigee:   243.1895 deg
Mean anomaly:     116.8271 deg
Mean motion:   14.31803134 rev/day
Decay rate:       -4.0e-08 rev/day^2
Epoch rev:           97500
Checksum:              309

Satellite: LO-19
Catalog number: 20442
Epoch time:      08266.51823619
Element set:    0347
Inclination:      098.2114 deg
RA of node:       249.8944 deg
Eccentricity:    0.0011043
Arg of perigee:   242.2041 deg
Mean anomaly:     117.8018 deg
Mean motion:   14.32040757 rev/day
Decay rate:       -3.3e-07 rev/day^2
Epoch rev:           97500
Checksum:              280

Satellite: AO-27
Catalog number: 22825
Epoch time:      08266.51073116
Element set:    0068
Inclination:      098.3965 deg
RA of node:       222.9348 deg
Eccentricity:    0.0008167
Arg of perigee:   340.3816 deg
Mean anomaly:     019.7049 deg
Mean motion:   14.29246903 rev/day
Decay rate:       -1.6e-07 rev/day^2
Epoch rev:           78167
Checksum:              323

Satellite: IO-26
Catalog number: 22826
Epoch time:      08266.47783388
Element set:    0780
Inclination:      098.3888 deg
RA of node:       223.7691 deg
Eccentricity:    0.0008828
Arg of perigee:   336.4598 deg
Mean anomaly:     023.6177 deg
Mean motion:   14.29496505 rev/day
Decay rate:       -2.2e-07 rev/day^2
Epoch rev:           78176
Checksum:              367

Satellite: GO-32
Catalog number: 25397
Epoch time:      08266.27477186
Element set:    0704
Inclination:      098.3561 deg
RA of node:       296.6069 deg
Eccentricity:    0.0001045
Arg of perigee:   002.9348 deg
Mean anomaly:     357.1838 deg
Mean motion:   14.23148501 rev/day
Decay rate:      .00000000 rev/day^2
Epoch rev:           53002
Checksum:              289

Satellite: NO-44
Catalog number: 26931
Epoch time:      08266.46560480
Element set:    0984
Inclination:      067.0527 deg
RA of node:       034.0507 deg
Eccentricity:    0.0007243
Arg of perigee:   263.8510 deg
Mean anomaly:     096.1774 deg
Mean motion:   14.29531953 rev/day
Decay rate:      -2.61e-06 rev/day^2
Epoch rev:           36431
Checksum:              305

Satellite: SO-50
Catalog number: 27607
Epoch time:      08267.62710015
Element set:     705
Inclination:      064.5572 deg
RA of node:       114.6731 deg
Eccentricity:    0.0086001
Arg of perigee:   260.4693 deg
Mean anomaly:     098.6681 deg
Mean motion:   14.71380258 rev/day
Decay rate:      -2.00e-06 rev/day^2
Epoch rev:           30945
Checksum:              292

Satellite: CO-55
Catalog number: 27844
Epoch time:      08267.26811330
Element set:     401
Inclination:      098.7180 deg
RA of node:       274.1839 deg
Eccentricity:    0.0009532
Arg of perigee:   188.6734 deg
Mean anomaly:     171.4303 deg
Mean motion:   14.20597383 rev/day
Decay rate:        3.5e-07 rev/day^2
Epoch rev:           27136
Checksum:              309

Satellite: CO-57
Catalog number: 27848
Epoch time:      08266.99764858
Element set:     352
Inclination:      098.7191 deg
RA of node:       272.9964 deg
Eccentricity:    0.0009279
Arg of perigee:   194.1747 deg
Mean anomaly:     165.9168 deg
Mean motion:   14.20404991 rev/day
Decay rate:     -.00000000 rev/day^2
Epoch rev:           27129
Checksum:              358

Satellite: AO-51
Catalog number: 28375
Epoch time:      08267.60587971
Element set:     205
Inclination:      098.0672 deg
RA of node:       286.6242 deg
Eccentricity:    0.0082899
Arg of perigee:   214.1486 deg
Mean anomaly:     145.4356 deg
Mean motion:   14.40618762 rev/day
Decay rate:       -1.0e-08 rev/day^2
Epoch rev:           22257
Checksum:              327

Satellite: CO-56
Catalog number: 28941
Epoch time:      08267.78017970
Element set:     402
Inclination:      098.1178 deg
RA of node:       032.3583 deg
Eccentricity:    0.0151455
Arg of perigee:   042.0202 deg
Mean anomaly:     319.2567 deg
Mean motion:   15.61634588 rev/day
Decay rate:     2.1474e-04 rev/day^2
Epoch rev:           14540
Checksum:              312

Satellite: CP3
Catalog number: 31128
Epoch time:      08266.84708001
Element set:     438
Inclination:      098.0287 deg
RA of node:       326.1076 deg
Eccentricity:    0.0103594
Arg of perigee:   033.4788 deg
Mean anomaly:     327.2908 deg
Mean motion:   14.51976054 rev/day
Decay rate:       -4.7e-07 rev/day^2
Epoch rev:            7610
Checksum:              306

Satellite: CP4
Catalog number: 31132
Epoch time:      08267.90424745
Element set:     419
Inclination:      098.0333 deg
RA of node:       329.7626 deg
Eccentricity:    0.0085954
Arg of perigee:   022.9993 deg
Mean anomaly:     337.5019 deg
Mean motion:   14.55142917 rev/day
Decay rate:        2.4e-07 rev/day^2
Epoch rev:            7630
Checksum:              311

Satellite: CO-65
Catalog number: 32785
Epoch time:      08267.87121062
Element set:     166
Inclination:      097.9836 deg
RA of node:       327.5002 deg
Eccentricity:    0.0015087
Arg of perigee:   171.3076 deg
Mean anomaly:     188.8396 deg
Mean motion:   14.81393459 rev/day
Decay rate:        2.4e-07 rev/day^2
Epoch rev:            2201
Checksum:              318

/EX
SB KEPS @ AMSAT  $ORB08267.W
Orbital Elements  08267.WEATHER

HR AMSAT ORBITAL ELEMENTS FOR WEATHER SATELLITES
FROM WA5QGD FORT WORTH,TX September 23, 2008
Send Subscribe/unsubscribe to KEPS at 
http://www.amsat.org/mailman/listinfo/keps
BID: ORB08267.W
TO ALL RADIO AMATEURS BT

Satellite: NOAA-10
Catalog number: 16969
Epoch time:      08267.22297529
Element set:     300
Inclination:      098.7186 deg
RA of node:       288.9794 deg
Eccentricity:    0.0011496
Arg of perigee:   255.2606 deg
Mean anomaly:     104.7308 deg
Mean motion:   14.27368504 rev/day
Decay rate:        4.0e-08 rev/day^2
Epoch rev:           14542
Checksum:              324

